| time (UTC) | temp F | wind direction | speed MPH | gust MPH | rain 1hr in | rain 24hr in | rain mn in | humidity % | barometer mb |
| 20260506171504 | 54 | 216 | 0.0 | 5.0 | 0.12 | 0.60 | 0.54 | 97 | 947.6 |
| 20260506170004 | 54 | 216 | 0.0 | 4.0 | 0.10 | 0.56 | 0.50 | 97 | 947.5 |
| 20260506164614 | 54 | 216 | 1.0 | 7.0 | 0.08 | 0.53 | 0.47 | 97 | 947.5 |
| 20260506163103 | 54 | 205 | 1.0 | 5.0 | 0.06 | 0.50 | 0.44 | 97 | 947.7 |
| 20260506161557 | 54 | 203 | 3.0 | 8.0 | 0.06 | 0.48 | 0.42 | 97 | 947.9 |
| 20260506154558 | 54 | 209 | 1.0 | 7.0 | 0.06 | 0.45 | 0.39 | 97 | 948.2 |
| 20260506153110 | 54 | 223 | 2.0 | 8.0 | 0.06 | 0.44 | 0.38 | 97 | 948.5 |
| 20260506151549 | 0 | 218 | 2.0 | 7.0 | 0.06 | 0.42 | 0.36 | 97 | 948.6 |
| 20260506150057 | 53 | 222 | 2.0 | 10.0 | 0.06 | 0.41 | 0.35 | 97 | 948.8 |
| 20260506144555 | 53 | 211 | 2.0 | 6.0 | 0.05 | 0.39 | 0.33 | 97 | 948.8 |
| 20260506143045 | 53 | 232 | 1.0 | 6.0 | 0.05 | 0.38 | 0.32 | 97 | 948.8 |
| 20260506141543 | 53 | 204 | 2.0 | 4.0 | 0.05 | 0.36 | 0.30 | 97 | 949.0 |
| 20260506140042 | 52 | 203 | 0.0 | 4.0 | 0.06 | 0.35 | 0.28 | 96 | 949.1 |
| 20260506134541 | 52 | 198 | 0.0 | 4.0 | 0.07 | 0.34 | 0.28 | 96 | 949.2 |
| 20260506133042 | 52 | 198 | 0.0 | 0.0 | 0.07 | 0.33 | 0.27 | 97 | 949.1 |
| 20260506131541 | 52 | 198 | 0.0 | 0.0 | 0.05 | 0.31 | 0.25 | 96 | 949.1 |
| 20260506130037 | 52 | 198 | 0.0 | 0.0 | 0.04 | 0.28 | 0.23 | 96 | 949.4 |
| 20260506124535 | 0 | 198 | 0.0 | 0.0 | 0.02 | 0.27 | 0.21 | 96 | 949.5 |
| 20260506123034 | 52 | 198 | 0.0 | 0.0 | 0.01 | 0.26 | 0.20 | 96 | 949.7 |
| 20260506121533 | 51 | 198 | 0.0 | 0.0 | 0.01 | 0.26 | 0.20 | 96 | 949.7 |
| 20260506120037 | 52 | 197 | 0.0 | 3.0 | 0.00 | 0.25 | 0.19 | 96 | 949.8 |
| 20260506114530 | 51 | 197 | 0.0 | 0.0 | 0.00 | 0.25 | 0.19 | 96 | 949.6 |
| 20260506113037 | 51 | 196 | 0.0 | 0.0 | 0.00 | 0.25 | 0.19 | 96 | 949.6 |
| 20260506111528 | 51 | 196 | 0.0 | 0.0 | 0.00 | 0.25 | 0.19 | 96 | 949.6 |
| 20260506110025 | 0 | 196 | 0.0 | 1.0 | 0.00 | 0.25 | 0.19 | 96 | 949.5 |
| 20260506104525 | 51 | 198 | 0.0 | 0.0 | 0.00 | 0.25 | 0.19 | 96 | 949.5 |
| 20260506103026 | 51 | 198 | 0.0 | 0.0 | 0.00 | 0.25 | 0.19 | 96 | 949.7 |
| 20260506101521 | 51 | 198 | 0.0 | 0.0 | 0.00 | 0.25 | 0.19 | 96 | 949.9 |
| 20260506100019 | 51 | 198 | 0.0 | 0.0 | 0.00 | 0.25 | 0.19 | 96 | 949.6 |
| 20260506094517 | 0 | 198 | 0.0 | 0.0 | 0.00 | 0.25 | 0.19 | 95 | 949.8 |
| 20260506093015 | 51 | 198 | 0.0 | 0.0 | 0.00 | 0.25 | 0.19 | 95 | 949.8 |
| 20260506091513 | 51 | 198 | 0.0 | 0.0 | 0.00 | 0.25 | 0.19 | 95 | 950.2 |
| 20260506090020 | 51 | 198 | 0.0 | 0.0 | 0.00 | 0.25 | 0.19 | 95 | 949.8 |
| 20260506084510 | 51 | 199 | 0.0 | 0.0 | 0.00 | 0.25 | 0.19 | 95 | 950.2 |
| 20260506083008 | 0 | 198 | 0.0 | 0.0 | 0.00 | 0.25 | 0.19 | 95 | 950.3 |
| 20260506081508 | 51 | 198 | 0.0 | 0.0 | 0.00 | 0.25 | 0.19 | 95 | 950.0 |
| 20260506073002 | 52 | 198 | 0.0 | 0.0 | 0.00 | 0.25 | 0.19 | 94 | 950.0 |
| 20260506071607 | 52 | 198 | 0.0 | 0.0 | 0.00 | 0.25 | 0.19 | 94 | 950.0 |
| 20260506070104 | 52 | 198 | 0.0 | 0.0 | 0.02 | 0.25 | 0.19 | 94 | 950.3 |
| 20260506061555 | 52 | 198 | 0.0 | 4.0 | 0.13 | 0.25 | 0.19 | 93 | 950.2 |
| 20260506044545 | 53 | 5 | 0.0 | 5.0 | 0.04 | 0.10 | 0.04 | 90 | 950.4 |
| 20260506043043 | 54 | 306 | 1.0 | 9.0 | 0.04 | 0.10 | 0.04 | 89 | 950.3 |
| 20260506041538 | 0 | 209 | 0.0 | 1.0 | 0.01 | 0.07 | 0.01 | 89 | 950.4 |
| 20260506040036 | 55 | 213 | 0.0 | 0.0 | 0.00 | 0.06 | 0.00 | 88 | 949.8 |
| 20260506034535 | 56 | 213 | 0.0 | 0.0 | 0.00 | 0.06 | 0.06 | 87 | 949.5 |
| 20260506033031 | 56 | 213 | 0.0 | 0.0 | 0.00 | 0.06 | 0.06 | 87 | 949.2 |
| 20260506031531 | 56 | 213 | 0.0 | 0.0 | 0.00 | 0.06 | 0.06 | 86 | 949.2 |
| 20260506030038 | 0 | 213 | 0.0 | 0.0 | 0.00 | 0.06 | 0.06 | 84 | 949.2 |
| 20260506024553 | 56 | 213 | 0.0 | 0.0 | 0.00 | 0.06 | 0.06 | 84 | 949.4 |
| 20260506023026 | 55 | 213 | 0.0 | 0.0 | 0.00 | 0.06 | 0.06 | 85 | 949.3 |
| 20260506021528 | 55 | 213 | 0.0 | 0.0 | 0.00 | 0.06 | 0.06 | 84 | 949.3 |
| 20260506020023 | 55 | 213 | 0.0 | 0.0 | 0.00 | 0.06 | 0.06 | 82 | 949.2 |
| 20260506014520 | 0 | 213 | 0.0 | 0.0 | 0.00 | 0.06 | 0.06 | 80 | 949.1 |
| 20260506013032 | 58 | 213 | 0.0 | 0.0 | 0.00 | 0.06 | 0.06 | 76 | 948.9 |
| 20260506011518 | 60 | 213 | 0.0 | 2.0 | 0.00 | 0.06 | 0.06 | 72 | 948.9 |
| 20260506010020 | 61 | 218 | 0.0 | 3.0 | 0.00 | 0.06 | 0.06 | 71 | 948.8 |
| 20260506004513 | 61 | 207 | 0.0 | 3.0 | 0.00 | 0.06 | 0.06 | 70 | 948.5 |
| 20260506003016 | 61 | 208 | 1.0 | 7.0 | 0.00 | 0.06 | 0.06 | 70 | 948.6 |
| 20260506001511 | 62 | 216 | 1.0 | 8.0 | 0.00 | 0.06 | 0.06 | 70 | 948.5 |
| 20260506000010 | 0 | 229 | 1.0 | 8.0 | 0.00 | 0.06 | 0.06 | 70 | 948.5 |
| 20260505234509 | 62 | 222 | 3.0 | 8.0 | 0.00 | 0.06 | 0.06 | 70 | 948.4 |
| 20260505233007 | 62 | 222 | 2.0 | 7.0 | 0.00 | 0.06 | 0.06 | 71 | 948.4 |
| 20260505231507 | 62 | 225 | 3.0 | 11.0 | 0.00 | 0.06 | 0.06 | 71 | 948.0 |
| 20260505230013 | 62 | 225 | 4.0 | 11.0 | 0.00 | 0.06 | 0.06 | 73 | 948.1 |
| 20260505224502 | 0 | 222 | 2.0 | 7.0 | 0.00 | 0.06 | 0.06 | 76 | 948.2 |
| 20260505223001 | 61 | 222 | 2.0 | 8.0 | 0.00 | 0.06 | 0.06 | 76 | 947.7 |
| 20260505221600 | 0 | 215 | 4.0 | 9.0 | 0.00 | 0.06 | 0.06 | 77 | 948.1 |
| 20260505220103 | 61 | 206 | 0.0 | 6.0 | 0.00 | 0.06 | 0.06 | 81 | 948.0 |
| 20260505214555 | 60 | 227 | 0.0 | 0.0 | 0.00 | 0.06 | 0.06 | 82 | 947.2 |
| 20260505213059 | 60 | 227 | 2.0 | 11.0 | 0.03 | 0.06 | 0.06 | 81 | 947.0 |
| 20260505211553 | 60 | 219 | 1.0 | 14.0 | 0.04 | 0.06 | 0.06 | 81 | 947.1 |
| 20260505210051 | 0 | 224 | 4.0 | 12.0 | 0.06 | 0.06 | 0.06 | 83 | 947.5 |
| 20260505204553 | 59 | 258 | 4.0 | 20.0 | 0.06 | 0.06 | 0.06 | 81 | 947.2 |
| 20260505203055 | 61 | 211 | 9.0 | 18.0 | 0.03 | 0.03 | 0.03 | 76 | 947.7 |
| 20260505201547 | 63 | 253 | 4.0 | 26.0 | 0.02 | 0.02 | 0.02 | 71 | 947.5 |
| 20260505200046 | 71 | 215 | 13.0 | 25.0 | 0.00 | 0.00 | 0.00 | 44 | 945.3 |
| 20260505194552 | 0 | 212 | 8.0 | 25.0 | 0.00 | 0.00 | 0.00 | 44 | 944.8 |
| 20260505193043 | 74 | 217 | 8.0 | 17.0 | 0.00 | 0.00 | 0.00 | 38 | 944.6 |
| 20260505191541 | 0 | 156 | 7.0 | 14.0 | 0.00 | 0.00 | 0.00 | 38 | 944.4 |
| 20260505190038 | 74 | 221 | 15.0 | 29.0 | 0.00 | 0.00 | 0.00 | 38 | 944.6 |
| 20260505184536 | 76 | 215 | 9.0 | 20.0 | 0.00 | 0.00 | 0.00 | 37 | 944.7 |
| 20260505183034 | 0 | 227 | 11.0 | 29.0 | 0.00 | 0.00 | 0.00 | 36 | 944.9 |
| 20260505181532 | 76 | 182 | 10.0 | 25.0 | 0.00 | 0.00 | 0.00 | 36 | 945.4 |
| 20260505180029 | 76 | 243 | 13.0 | 31.0 | 0.00 | 0.00 | 0.00 | 36 | 945.2 |
| 20260505174527 | 74 | 211 | 14.0 | 24.0 | 0.00 | 0.00 | 0.00 | 36 | 945.7 |
| 20260505173038 | 75 | 217 | 11.0 | 30.0 | 0.00 | 0.00 | 0.00 | 36 | 945.7 |